Location: ?ern� Novina
(50.6762°N, 14.8696°E)
Time: 12:51:14
(UTC+00:00)

COSMOS 2428 - Pass Details

Date: 03 March 2021
Orbit: 845 x 858 km, 70.9° (Epoch: 17 April)

Event Time Altitude Azimuth Distance (km) Brightness Sun altitude
Rises 17:36:38 0° 146° (SE) 3,395 5.5 -8.9°
Reaches altitude 10° 17:40:43 10° 117° (ESE) 2,468 4.6 -9.5°
Enters shadow 17:42:23 12° 100° (E) 2,325 4.3 -9.8°
